When you browse on this site, cookies collect data to enhance your experience and personalize the content and advertising you see.
Visit our Privacy Policy to learn more. By continuing to use the site, you agree to this use of cookies and data.
  • în România
  • Lista ţărilor
  • Pe 7 zile
  • Temperatura apei
  • Meteo pe hartă
  • Widget-uri
  • user-avatar
    Intrare

    Meteo pe oră la Perth

    Astăzi, 20 Septembrie, Vineri

    Timp Temperatura Precipitaţii Vânt Presiune Umiditate
    00:00 +9°C° 0 mm 3 m/s 768 mmHg 66%
    01:00 +9°C° 0 mm 3 m/s 768 mmHg 68%
    02:00 +8°C° 0 mm 2 m/s 768 mmHg 70%
    03:00 +8°C° 0 mm 2 m/s 768 mmHg 71%
    04:00 +8°C° 0 mm 2 m/s 769 mmHg 72%
    05:00 +8°C° 0 mm 1 m/s 769 mmHg 72%
    06:00 +8°C° 0 mm 2 m/s 769 mmHg 69%
    07:00 +9°C° 0 mm 2 m/s 769 mmHg 65%
    08:00 +10°C° 0 mm 2 m/s 769 mmHg 62%
    09:00 +13°C° 0 mm 2 m/s 769 mmHg 56%
    10:00 +13°C° 0 mm 3 m/s 769 mmHg 50%
    11:00 +16°C° 0 mm 3 m/s 769 mmHg 44%
    12:00 +16°C° 0 mm 3 m/s 769 mmHg 44%
    13:00 +16°C° 0 mm 3 m/s 768 mmHg 45%
    14:00 +17°C° 0 mm 3 m/s 768 mmHg 46%
    15:00 +16°C° 0 mm 3 m/s 768 mmHg 50%
    16:00 +16°C° 0 mm 3 m/s 768 mmHg 54%
    17:00 +14°C° 0 mm 3 m/s 768 mmHg 58%
    18:00 +14°C° 0 mm 3 m/s 768 mmHg 61%
    19:00 +13°C° 0 mm 3 m/s 769 mmHg 65%
    20:00 +12°C° 0 mm 3 m/s 770 mmHg 68%
    21:00 +12°C° 0 mm 3 m/s 770 mmHg 70%
    22:00 +11°C° 0 mm 3 m/s 770 mmHg 72%
    23:00 +12°C° 0 mm 2 m/s 769 mmHg 75%

    Mâine, 21 Septembrie, Sâmbătă

    Timp Temperatura Precipitaţii Vânt Presiune Umiditate
    00:00 +10°C° 0 mm 2 m/s 769 mmHg 77%
    01:00 +10°C° 0 mm 2 m/s 769 mmHg 79%
    02:00 +9°C° 0 mm 3 m/s 769 mmHg 81%
    03:00 +9°C° 0 mm 2 m/s 769 mmHg 82%
    04:00 +9°C° 0 mm 2 m/s 770 mmHg 82%
    05:00 +8°C° 0 mm 2 m/s 770 mmHg 82%
    06:00 +9°C° 0 mm 2 m/s 770 mmHg 79%
    07:00 +10°C° 0 mm 2 m/s 770 mmHg 76%
    08:00 +12°C° 0 mm 2 m/s 771 mmHg 72%
    09:00 +13°C° 0 mm 2 m/s 770 mmHg 65%
    10:00 +15°C° 0 mm 2 m/s 770 mmHg 57%
    11:00 +17°C° 0 mm 2 m/s 770 mmHg 49%
    12:00 +17°C° 0 mm 2 m/s 770 mmHg 49%
    13:00 +18°C° 0 mm 2 m/s 770 mmHg 49%
    14:00 +18°C° 0 mm 2 m/s 769 mmHg 49%
    15:00 +17°C° 0 mm 3 m/s 769 mmHg 52%
    16:00 +17°C° 0 mm 3 m/s 769 mmHg 55%
    17:00 +15°C° 0 mm 4 m/s 769 mmHg 59%
    18:00 +14°C° 0 mm 3 m/s 770 mmHg 63%
    19:00 +13°C° 0 mm 3 m/s 770 mmHg 67%
    20:00 +12°C° 0 mm 3 m/s 771 mmHg 72%
    21:00 +11°C° 0 mm 3 m/s 771 mmHg 73%
    22:00 +12°C° 0 mm 2 m/s 771 mmHg 73%
    23:00 +10°C° 0 mm 2 m/s 771 mmHg 74%

    Poimâine, 22 Septembrie, Duminică

    Timp Temperatura Precipitaţii Vânt Presiune Umiditate
    00:00 +10°C° 0 mm 2 m/s 771 mmHg 75%
    01:00 +9°C° 0 mm 3 m/s 771 mmHg 77%
    02:00 +9°C° 0 mm 3 m/s 771 mmHg 78%
    03:00 +9°C° 0 mm 3 m/s 771 mmHg 79%
    04:00 +9°C° 0 mm 3 m/s 771 mmHg 79%
    05:00 +7°C° 0 mm 4 m/s 771 mmHg 80%
    06:00 +8°C° 0 mm 4 m/s 771 mmHg 77%
    07:00 +10°C° 0 mm 4 m/s 772 mmHg 74%
    08:00 +11°C° 0 mm 4 m/s 772 mmHg 71%
    09:00 +13°C° 0 mm 3 m/s 772 mmHg 64%
    10:00 +16°C° 0 mm 3 m/s 771 mmHg 56%
    11:00 +18°C° 0 mm 3 m/s 771 mmHg 49%
    12:00 +18°C° 0 mm 3 m/s 771 mmHg 47%
    13:00 +19°C° 0 mm 2 m/s 770 mmHg 45%
    14:00 +20°C° 0 mm 2 m/s 770 mmHg 43%
    15:00 +19°C° 0 mm 3 m/s 769 mmHg 47%
    16:00 +19°C° 0 mm 3 m/s 769 mmHg 52%
    17:00 +18°C° 0 mm 3 m/s 769 mmHg 56%
    18:00 +17°C° 0 mm 3 m/s 770 mmHg 61%
    19:00 +14°C° 0 mm 3 m/s 770 mmHg 65%
    20:00 +13°C° 0 mm 3 m/s 770 mmHg 69%
    21:00 +13°C° 0 mm 3 m/s 770 mmHg 68%
    22:00 +13°C° 0 mm 2 m/s 770 mmHg 67%
    23:00 +13°C° 0 mm 2 m/s 770 mmHg 65%

    23 Septembrie, Luni

    Timp Temperatura Precipitaţii Vânt Presiune Umiditate
    00:00 +12°C° 0 mm 3 m/s 770 mmHg 64%
    01:00 +12°C° 0 mm 3 m/s 770 mmHg 63%
    02:00 +12°C° 0 mm 4 m/s 769 mmHg 62%
    03:00 +11°C° 0 mm 4 m/s 769 mmHg 63%
    04:00 +11°C° 0 mm 4 m/s 769 mmHg 64%
    05:00 +11°C° 0 mm 4 m/s 768 mmHg 65%
    06:00 +11°C° 0 mm 4 m/s 768 mmHg 62%
    07:00 +12°C° 0 mm 4 m/s 768 mmHg 59%
    08:00 +13°C° 0 mm 4 m/s 768 mmHg 56%
    09:00 +15°C° 0 mm 4 m/s 768 mmHg 51%
    10:00 +19°C° 0 mm 4 m/s 768 mmHg 46%
    11:00 +21°C° 0 mm 4 m/s 767 mmHg 42%
    12:00 +22°C° 0 mm 4 m/s 767 mmHg 40%
    13:00 +22°C° 0 mm 3 m/s 766 mmHg 39%
    14:00 +24°C° 0 mm 3 m/s 765 mmHg 37%
    15:00 +24°C° 0 mm 2 m/s 765 mmHg 40%
    16:00 +23°C° 0 mm 2 m/s 765 mmHg 43%
    17:00 +23°C° 0 mm 2 m/s 764 mmHg 46%
    18:00 +20°C° 0 mm 2 m/s 764 mmHg 50%
    19:00 +19°C° 0 mm 2 m/s 765 mmHg 54%
    20:00 +17°C° 0 mm 2 m/s 765 mmHg 57%
    21:00 +17°C° 0 mm 2 m/s 765 mmHg 58%
    22:00 +16°C° 0 mm 2 m/s 764 mmHg 58%
    23:00 +16°C° 0 mm 2 m/s 764 mmHg 59%

    24 Septembrie, Marţi

    Timp Temperatura Precipitaţii Vânt Presiune Umiditate
    00:00 +15°C° 0 mm 1 m/s 763 mmHg 59%
    01:00 +15°C° 0 mm 1 m/s 763 mmHg 59%
    02:00 +14°C° 0 mm 1 m/s 763 mmHg 59%
    03:00 +14°C° 0 mm 2 m/s 762 mmHg 59%
    04:00 +13°C° 0 mm 2 m/s 762 mmHg 59%
    05:00 +13°C° 0 mm 2 m/s 761 mmHg 59%
    06:00 +14°C° 0 mm 2 m/s 761 mmHg 55%
    07:00 +15°C° 0 mm 2 m/s 761 mmHg 51%
    08:00 +16°C° 0 mm 1 m/s 761 mmHg 47%
    09:00 +18°C° 0 mm 2 m/s 761 mmHg 47%
    10:00 +19°C° 0 mm 2 m/s 761 mmHg 46%
    11:00 +21°C° 0 mm 3 m/s 761 mmHg 46%
    12:00 +21°C° 0 mm 3 m/s 761 mmHg 48%
    13:00 +21°C° 0 mm 4 m/s 760 mmHg 49%
    14:00 +22°C° 0 mm 5 m/s 760 mmHg 51%
    15:00 +21°C° 0 mm 4 m/s 760 mmHg 55%
    16:00 +20°C° 0 mm 4 m/s 761 mmHg 59%
    17:00 +19°C° 0 mm 4 m/s 761 mmHg 63%
    18:00 +18°C° 0 mm 3 m/s 761 mmHg 67%
    19:00 +17°C° 0 mm 2 m/s 762 mmHg 71%
    20:00 +16°C° 0 mm 2 m/s 762 mmHg 75%
    21:00 +15°C° 0 mm 1 m/s 762 mmHg 76%
    22:00 +15°C° 0 mm 1 m/s 762 mmHg 77%
    23:00 +15°C° 0 mm 1 m/s 762 mmHg 78%

    25 Septembrie, Miercuri

    Timp Temperatura Precipitaţii Vânt Presiune Umiditate
    00:00 +14°C° 0 mm 1 m/s 762 mmHg 79%
    01:00 +14°C° 0 mm 1 m/s 762 mmHg 80%
    02:00 +14°C° 0 mm 1 m/s 762 mmHg 81%
    03:00 +14°C° 0.1 mm 1 m/s 762 mmHg 82%
    04:00 +14°C° 0.1 mm 2 m/s 762 mmHg 84%
    05:00 +14°C° 0.1 mm 2 m/s 762 mmHg 86%
    06:00 +15°C° 0.1 mm 2 m/s 762 mmHg 83%
    07:00 +15°C° 0.1 mm 2 m/s 762 mmHg 80%
    08:00 +16°C° 0.1 mm 3 m/s 762 mmHg 78%
    09:00 +17°C° 0 mm 3 m/s 762 mmHg 72%
    10:00 +17°C° 0 mm 3 m/s 762 mmHg 67%
    11:00 +18°C° 0 mm 3 m/s 762 mmHg 62%
    12:00 +18°C° 0 mm 4 m/s 762 mmHg 60%
    13:00 +19°C° 0 mm 4 m/s 762 mmHg 59%
    14:00 +19°C° 0 mm 4 m/s 761 mmHg 57%
    15:00 +18°C° 0 mm 4 m/s 761 mmHg 60%
    16:00 +18°C° 0 mm 4 m/s 761 mmHg 62%
    17:00 +17°C° 0 mm 4 m/s 762 mmHg 65%
    18:00 +16°C° 0 mm 3 m/s 762 mmHg 69%
    19:00 +16°C° 0 mm 3 m/s 763 mmHg 72%
    20:00 +15°C° 0 mm 2 m/s 763 mmHg 76%
    21:00 +14°C° 0.1 mm 2 m/s 763 mmHg 78%
    22:00 +13°C° 0.1 mm 3 m/s 764 mmHg 80%
    23:00 +13°C° 0.1 mm 3 m/s 764 mmHg 81%
    Arată mai mult